Location: Krasnoyarskiy Pitomnik
(51.1333°N, 71.6167°E)
Time: 22:05:23
(UTC+00:00)

A-11 Canister half - Pass Details

Date: 22 April 2024
Orbit: 1525 x 1683 km, 47.3° (Epoch: 19 May)

Event Time Altitude Azimuth Distance (km) Brightness Sun altitude
Rises 01:56:45 0° 243° (WSW) 4,878 11.1 16.6°
Reaches altitude 10° 01:59:54 10° 240° (WSW) 3,907 10.7 17.1°
Maximum altitude 02:09:46 64° 163° (SSE) 1,831 9.9 18.6°
Drops below altitude 10° 02:19:45 10° 85° (E) 3,946 13.2 20.2°
Sets 02:22:56 0° 83° (E) 4,928 13.1 20.7°
